[[{"header":{"parameterUnit":"m.s-1","parameterCategory":2,"la1":30.2991,"la2":30.254,"lo1":-89.0895,"lo2":-89.0444,"dy":0.0017,"dx":0.0017,"nx":28,"ny":28,"refTime":"2025-07-07T03:00:00:Z","depth":"0","parameterNumber":2,"parameterNumberName":"U-component_of_CURRENTS"},"data":[0,0,0,0,0,0,0,0,0,0,0,0,0,0,0,0,0,0,0,0,0,0,0,0,0,0,0,0,0,0,0,0,0,0,0,0,0,0,0,0,0,0,0,0,0,0,0,0,0,0,0,0,0,0,0,0,0,0,0.4078,0.4079,0,0.4196,0.4198,0.42,0.4162,0.4159,0.4156,0.4153,0.4344,0.4351,0.4359,0,0,0,0,0,0,0,0,0,0,0,0,0,0.3838,0.3842,0.4078,0.4079,0.4081,0.4196,0.4198,0.42,0.4162,0.4159,0.4155,0.4152,0.4341,0.435,0.436,0,0,0,0,0,0,0,0,0,0,0,0,0,0.3951,0.3844,0.4078,0.4073,0.4073,0.4196,0.4198,0.4201,0.4163,0.4158,0.4154,0.415,0.4338,0.435,0.4361,0.4518,0,0,0.4396,0.4402,0,0,0,0,0,0,0,0,0.3944,0.396,0.4073,0.4074,0.4074,0.4157,0.4183,0.4309,0.4164,0.4133,0.4153,0.4148,0.4289,0.4304,0.434,0.4527,0.4536,0.4398,0.4405,0.441,0.4413,0,0,0,0,0,0,0,0.3937,0.3955,0.4129,0.4074,0.4075,0.407,0.4082,0.4207,0.4238,0.4135,0.4132,0.4141,0.429,0.4329,0.4344,0.4538,0.4397,0.4408,0.4415,0.4419,0.4776,0.4779,0,0,0,0,0,0,0.392,0.3949,0.4125,0.4132,0.3993,0.4078,0.4091,0.4137,0.4234,0.4243,0.4144,0.4138,0.4311,0.4331,0.4351,0.4484,0.4409,0.442,0.4427,0.4774,0.4777,0.4779,0,0,0,0,0,0,0.3915,0.3937,0.412,0.4037,0.4059,0.4086,0.4139,0.4142,0.4172,0.424,0.425,0.4168,0.4309,0.4335,0.446,0.4493,0.4426,0.4436,0.4771,0.4775,0.4778,0.4789,0,0,0,0,0,0,0.3909,0.3935,0.3976,0.4038,0.4063,0.4207,0.4143,0.4147,0.4183,0.4176,0.4266,0.4278,0.4307,0.4442,0.4471,0.4508,0.4445,0.4767,0.4772,0.4777,0.4786,0.4793,0.4799,0,0,0,0,0,0.3901,0.3964,0.3979,0.4,0.4116,0.4209,0.4225,0.4228,0.4188,0.4234,0.4275,0.4275,0.449,0.4456,0.4489,0.4529,0.4765,0.4771,0.4777,0.4783,0.4792,0.4799,0,0,0,0,0,0,0.3875,0.3969,0.3984,0.4073,0.4143,0.4201,0.4233,0.4244,0.4316,0.4301,0.4342,0.4363,0.4475,0.4519,0.4479,0.4643,0.4617,0.463,0.4611,0.462,0.4627,0.4665,0.4455,0,0,0,0,0,0.3895,0.3975,0.4051,0.4128,0.4152,0.4199,0.4236,0.4253,0.4313,0.4337,0.44,0.4462,0.4534,0.4585,0.4669,0.4796,0.484,0.4832,0.4839,0.4844,0.4899,0.4966,0.4983,0.4798,0.4798,0.4798,0,0,0.3902,0.3969,0.401,0.4129,0.4168,0.4256,0.4211,0.4279,0.4357,0.4358,0.4479,0.4508,0.4575,0.4684,0.4737,0.4721,0.4921,0.4852,0.4855,0.4908,0.4974,0.4991,0.5007,0.4802,0.4801,0.4801,0,0,0.3956,0.4016,0.4091,0.4162,0.4245,0.4297,0.4319,0.44,0.4427,0.4561,0.4547,0.4608,0.4753,0.4789,0.4824,0.494,0.4955,0.4941,0.5015,0.5078,0.5093,0.5108,0.518,0.52,0.4941,0.4941,0.4941,0,0.3958,0.4083,0.4127,0.4217,0.4284,0.4318,0.4414,0.4474,0.4592,0.4627,0.4603,0.4764,0.4809,0.4915,0.4934,0.4957,0.4994,0.4967,0.5085,0.51,0.5115,0.5185,0.5208,0.4942,0.4942,0.4942,0.4942,0,0.4077,0.4171,0.4214,0.4356,0.4435,0.4528,0.4608,0.468,0.4712,0.4763,0.4867,0.4922,0.5005,0.5008,0.5018,0.5129,0.5122,0.5079,0.5056,0.5134,0.5203,0.5227,0.4944,0.4944,0.4943,0.4943,0,0,0.4102,0.4268,0.4285,0.4357,0.452,0.459,0.4717,0.4839,0.4887,0.4982,0.5063,0.516,0.5146,0.5189,0.518,0.5237,0.5354,0.5208,0.5211,0.5269,0.5506,0.5418,0.5434,0.5312,0.5316,0.532,0.5509,0,0.4187,0.4367,0.4438,0.4605,0.4703,0.4771,0.4877,0.4978,0.5046,0.5135,0.517,0.525,0.5224,0.5238,0.5301,0.5348,0.5419,0.5309,0.5437,0.5443,0.5343,0.546,0.519,0.5329,0.5532,0.5536,0.5539,0,0.4301,0.4407,0.4574,0.4721,0.4758,0.4849,0.4992,0.5093,0.5205,0.5244,0.5323,0.5349,0.5473,0.5408,0.5575,0.5499,0.5534,0.5556,0.5562,0.5506,0.5399,0.5289,0.5364,0.5216,0.5575,0.5572,0.5569,0,0.4329,0.4507,0.4638,0.4701,0.4863,0.4911,0.4995,0.5113,0.5171,0.5312,0.5362,0.5491,0.5558,0.564,0.5708,0.565,0.5872,0.5783,0.5747,0.5741,0.5559,0.5528,0.55,0.5916,0.5916,0.5916,0.5915,0,0.4426,0.4527,0.4637,0.4708,0.4804,0.4916,0.5002,0.5092,0.5204,0.5277,0.5401,0.5484,0.5618,0.574,0.5781,0.5863,0.5939,0.5823,0.5802,0.5553,0.5521,0.5421,0.5368,0.5923,0.5921,0.592,0.5918,0,0.4449,0.4543,0.4667,0.4793,0.4819,0.488,0.4977,0.5033,0.5157,0.5266,0.5317,0.552,0.5693,0.5815,0.5971,0.5948,0.5863,0.6026,0.5737,0.5679,0.5457,0.5416,0.5302,0.5153,0.6025,0.6025,0.6024,0,0.4494,0.4559,0.4672,0.4706,0.475,0.4828,0.4872,0.4992,0.5053,0.5268,0.5322,0.5542,0.5656,0.5886,0.5908,0.6,0.5845,0.5793,0.5632,0.5465,0.5405,0.5229,0.5098,0.54,0.5394,0.539,0.5386,0,0.4537,0.4553,0.4627,0.4675,0.4714,0.4753,0.4829,0.4853,0.5002,0.5098,0.5234,0.5344,0.5578,0.5571,0.5721,0.5726,0.5497,0.5698,0.5591,0.5,0.4744,0.4579,0.5277,0.5344,0.5348,0.5351,0.5354,0.5355,0.4532,0.455,0.46,0.4631,0.466,0.4646,0.4615,0.4694,0.4739,0.4804,0.5041,0.5084,0.5216,0.5377,0.5388,0.5202,0.5227,0.502,0.5018,0.4883,0.462,0.5248,0.5237,0.5241,0.5243,0.5246,0.5248,0,0.4494,0.4509,0.4552,0.4535,0.4487,0.4543,0.4548,0.4466,0.443,0.4543,0.4617,0.4641,0.4666,0.475,0.4701,0.4542,0.4341,0.4421,0.4096,0.4027,0.4641,0.449,0.4233,0.4234,0.4234,0.4234,0.4234,0.4234,0.4478,0.4469,0.4468,0.4351,0.4323,0.4162,0.4121,0.4035,0.4031,0.3931,0.3881,0.3987,0.4216,0.4315,0.4164,0.4058,0.3771,0.3589,0.365,0.4065,0.4118,0.4169,0.4013,0.366,0.366,0.2813,0.2806,0.2802]},{"header":{"parameterUnit":"m.s-1","parameterCategory":2,"la1":30.2991,"la2":30.254,"lo1":-89.0895,"lo2":-89.0444,"dy":0.0017,"dx":0.0017,"nx":28,"ny":28,"refTime":"2025-07-07T03:00:00:Z","depth":"0","parameterNumber":3,"parameterNumberName":"V-component_of_CURRENTS"},"data":[0,0,0,0,0,0,0,0,0,0,0,0,0,0,0,0,0,0,0,0,0,0,0,0,0,0,0,0,0,0,0,0,0,0,0,0,0,0,0,0,0,0,0,0,0,0,0,0,0,0,0,0,0,0,0,0,0,0,0.0042,0.0041,0,-0.0043,-0.0044,-0.0045,-0.0089,-0.0088,-0.0088,-0.0088,-0.0212,-0.0215,-0.0219,0,0,0,0,0,0,0,0,0,0,0,0,0,0.0101,0.01,0.0042,0.0041,0.0041,-0.0043,-0.0044,-0.0045,-0.0089,-0.0088,-0.0088,-0.0088,-0.0211,-0.0215,-0.0219,0,0,0,0,0,0,0,0,0,0,0,0,0,0.0049,0.01,0.0042,0.0011,0.0008,-0.0042,-0.0044,-0.0046,-0.0089,-0.0088,-0.0088,-0.0088,-0.0209,-0.0214,-0.0219,-0.0259,0,0,-0.0236,-0.0238,0,0,0,0,0,0,0,0,0.0052,0.0046,0.0017,0.0013,0.001,-0.0052,-0.0069,-0.0118,-0.0089,-0.0055,-0.0088,-0.0087,-0.016,-0.0169,-0.019,-0.0265,-0.0271,-0.0236,-0.0239,-0.0242,-0.0243,0,0,0,0,0,0,0,0.0056,0.0049,0.0005,0.0016,0.0012,-0.0021,-0.0027,-0.0079,-0.0112,-0.0058,-0.0061,-0.0065,-0.0163,-0.0185,-0.0193,-0.0272,-0.0236,-0.0241,-0.0244,-0.0246,-0.0348,-0.0348,0,0,0,0,0,0,0.0075,0.0053,0.0008,0.0003,0.0035,-0.0022,-0.0029,-0.0035,-0.0111,-0.012,-0.0066,-0.0067,-0.0176,-0.0187,-0.0198,-0.0186,-0.0242,-0.0247,-0.025,-0.0349,-0.0348,-0.0348,0,0,0,0,0,0,0.0077,0.0072,0.0012,0.0029,0.0019,-0.0022,-0.0029,-0.0037,-0.0052,-0.0115,-0.0126,-0.0071,-0.0176,-0.019,-0.0227,-0.0194,-0.0249,-0.0254,-0.0349,-0.0348,-0.0348,-0.0204,0,0,0,0,0,0,0.0079,0.0073,0.0075,0.003,0.0019,-0.0004,-0.0029,-0.0039,-0.0054,-0.0057,-0.0124,-0.0135,-0.0177,-0.0218,-0.0232,-0.0202,-0.0258,-0.035,-0.0349,-0.0348,-0.021,-0.0199,-0.019,0,0,0,0,0,0.0081,0.0094,0.0075,0.007,0.0023,-0.0003,-0.0012,-0.0043,-0.0054,-0.0056,-0.0096,-0.0133,-0.0222,-0.0222,-0.0238,-0.0209,-0.035,-0.0349,-0.0348,-0.0214,-0.0201,-0.019,0,0,0,0,0,0,0.0124,0.009,0.0068,0.007,0.0039,-0.0009,-0.0009,-0.0036,-0.0072,-0.007,-0.0133,-0.0147,-0.0162,-0.0216,-0.0215,-0.0239,-0.0291,-0.0293,-0.0183,-0.0172,-0.0162,-0.0094,-0.0262,0,0,0,0,0,0.0133,0.0132,0.0089,0.009,0.0081,0.0034,0.002,-0.0001,-0.0038,-0.0053,-0.0101,-0.0147,-0.0174,-0.0195,-0.0237,-0.0259,-0.0272,-0.0252,-0.0242,-0.0232,-0.019,-0.0171,-0.0154,-0.0344,-0.0344,-0.0344,0,0,0.0148,0.0131,0.0128,0.0099,0.0074,0.0076,0.0026,0.0017,0.0027,-0.0062,-0.0065,-0.0115,-0.0173,-0.0183,-0.0196,-0.0222,-0.0194,-0.0231,-0.0222,-0.0184,-0.0168,-0.0149,-0.0132,-0.0344,-0.0344,-0.0344,0,0,0.0196,0.0166,0.0187,0.0167,0.0142,0.0111,0.0114,0.0068,0.006,0.0034,-0.0005,-0.0018,-0.0106,-0.0103,-0.0122,-0.0085,-0.0139,-0.0126,-0.0019,-0.0002,0.0016,0.0031,0.0015,0.0028,-0.0122,-0.0122,-0.0122,0,0.0221,0.0237,0.0188,0.0207,0.021,0.0136,0.0168,0.0142,0.0091,0.0115,0.005,0.0011,-0.0048,-0.0001,0.0004,-0.0052,-0.0075,-0.0054,0.0018,0.0032,0.0046,0.0026,0.0038,-0.0115,-0.0115,-0.0116,-0.0117,0,0.0282,0.0296,0.0309,0.0309,0.0303,0.0312,0.0279,0.0278,0.0242,0.0225,0.0247,0.0171,0.0165,0.0128,0.0068,0.0139,0.008,0.0034,0.0002,0.0075,0.0047,0.0058,-0.0105,-0.0107,-0.0109,-0.0111,0,0,0.034,0.0353,0.0359,0.0396,0.0362,0.0379,0.0401,0.0425,0.0486,0.0412,0.0493,0.0426,0.0396,0.0375,0.0309,0.0307,0.0352,0.0208,0.0205,0.022,0.0364,0.0298,0.0302,0.0311,0.0314,0.0317,0.03,0,0.0407,0.0488,0.0464,0.0539,0.0581,0.0543,0.0583,0.0598,0.0585,0.0634,0.059,0.0617,0.0486,0.0495,0.0476,0.04,0.0389,0.036,0.0269,0.0266,0.0223,0.0317,0.0272,0.0252,0.0309,0.0311,0.0312,0,0.0487,0.0529,0.0627,0.07,0.0717,0.0749,0.0838,0.0863,0.0904,0.0902,0.0918,0.0865,0.088,0.0739,0.0672,0.0652,0.0529,0.0443,0.044,0.035,0.0223,0.019,0.0268,0.0045,0.0328,0.0326,0.0325,0,0.0597,0.0657,0.0754,0.0768,0.082,0.0883,0.0914,0.0963,0.103,0.1091,0.1148,0.1121,0.114,0.1003,0.0808,0.0746,0.0714,0.0609,0.0435,0.0426,0.0362,0.0344,0.0248,0.057,0.057,0.057,0.057,0,0.0701,0.0781,0.0819,0.0875,0.0997,0.1004,0.1143,0.1175,0.1257,0.1373,0.1305,0.1394,0.1206,0.1143,0.0919,0.0732,0.0805,0.0498,0.0444,0.0403,0.0389,0.0167,0.0034,0.0569,0.057,0.057,0.057,0,0.0823,0.0848,0.0954,0.1025,0.1058,0.1152,0.1264,0.1367,0.1432,0.1586,0.1622,0.1633,0.1563,0.1343,0.1148,0.0907,0.0572,0.061,0.0559,0.05,0.0102,-0.0021,-0.016,-0.0243,0.0428,0.0427,0.0426,0,0.0905,0.097,0.1057,0.1116,0.1153,0.1274,0.1362,0.1445,0.1557,0.1735,0.183,0.1836,0.1849,0.1547,0.1151,0.0795,0.0559,0.0488,0.0366,0.012,-0.0057,-0.0151,-0.0216,0.0317,0.0315,0.0314,0.0312,0,0.1027,0.1047,0.1111,0.1222,0.1322,0.1443,0.158,0.1696,0.1825,0.1977,0.2156,0.2195,0.1929,0.1588,0.1105,0.0821,0.032,0.0442,0.0221,-0.0101,-0.0238,-0.0356,0.0258,0.0298,0.03,0.0301,0.0302,0.0302,0.1092,0.114,0.1204,0.1318,0.1434,0.1593,0.1712,0.188,0.2088,0.2328,0.2365,0.245,0.1946,0.1301,0.0918,0.0179,0.0207,-0.008,-0.0195,-0.0255,-0.0367,0.0208,0.0161,0.0162,0.0162,0.0163,0.0163,0,0.1132,0.1185,0.1294,0.1421,0.1559,0.1615,0.1839,0.1978,0.223,0.2445,0.2602,0.2367,0.1743,0.109,0.0121,-0.0372,-0.054,-0.0634,-0.0777,-0.0801,-0.026,-0.0299,-0.0487,-0.0487,-0.0487,-0.0487,-0.0486,-0.0486,0.1156,0.1234,0.1287,0.1496,0.1601,0.1791,0.1922,0.2147,0.2327,0.2558,0.2592,0.2594,0.2058,0.0418,-0.0687,-0.0931,-0.124,-0.1339,-0.1441,-0.1108,-0.1065,-0.1024,-0.109,-0.1441,-0.1442,-0.1932,-0.1937,-0.1942]}],[{"header":{"parameterUnit":"m.s-1","parameterCategory":2,"la1":30.2991,"la2":30.254,"lo1":-89.0895,"lo2":-89.0444,"dy":0.0017,"dx":0.0017,"nx":28,"ny":28,"refTime":"2025-07-07T03:00:00:Z","depth":"2","parameterNumber":2,"parameterNumberName":"U-component_of_CURRENTS"},"data":[0,0,0,0,0,0,0,0,0,0,0,0,0,0,0,0,0,0,0,0,0,0,0,0,0,0,0,0,0,0,0,0,0,0,0,0,0,0,0,0,0,0,0,0,0,0,0,0,0,0,0,0,0,0,0,0,0,0,0.3113,0.3115,0,0.3103,0.3101,0.3099,0.3113,0.3116,0.3118,0.3121,0.3237,0.3238,0.3239,0,0,0,0,0,0,0,0,0,0,0,0,0,0.2979,0.298,0.3113,0.3115,0.3117,0.3103,0.3101,0.3099,0.3113,0.3116,0.3119,0.3122,0.3237,0.3238,0.3239,0,0,0,0,0,0,0,0,0,0,0,0,0,0.2989,0.2981,0.3113,0.3138,0.3142,0.3104,0.3101,0.3098,0.3112,0.3116,0.312,0.3123,0.3237,0.3238,0.3239,0.3171,0,0,0.3242,0.3243,0,0,0,0,0,0,0,0,0.2989,0.2991,0.3133,0.3137,0.3141,0.3132,0.3097,0.3136,0.3111,0.3101,0.3121,0.3125,0.3225,0.3227,0.3184,0.3176,0.3181,0.3243,0.3243,0.3244,0.3244,0,0,0,0,0,0,0,0.2988,0.2991,0.3087,0.3135,0.314,0.3095,0.3099,0.3102,0.3128,0.3102,0.3108,0.314,0.3226,0.3183,0.3188,0.3183,0.3243,0.3244,0.3244,0.3245,0.3404,0.3407,0,0,0,0,0,0,0.3038,0.2991,0.3088,0.3089,0.3097,0.3097,0.3101,0.3113,0.3125,0.3136,0.3137,0.3142,0.3179,0.3187,0.3193,0.3391,0.3244,0.3245,0.3245,0.34,0.3405,0.3408,0,0,0,0,0,0,0.3034,0.3045,0.3089,0.3058,0.3064,0.3099,0.311,0.3112,0.3124,0.3155,0.3164,0.3159,0.3182,0.3191,0.3291,0.3386,0.3245,0.3246,0.3396,0.3402,0.3407,0.3612,0,0,0,0,0,0,0.303,0.3043,0.303,0.3061,0.3068,0.3134,0.3109,0.311,0.3146,0.3152,0.3175,0.3186,0.3186,0.329,0.3293,0.3386,0.3247,0.3392,0.3399,0.3405,0.36,0.3623,0.3643,0,0,0,0,0,0.3024,0.3042,0.3028,0.304,0.3061,0.3139,0.3136,0.3157,0.3145,0.3172,0.3212,0.3188,0.3334,0.3294,0.3296,0.3392,0.3388,0.3397,0.3404,0.3591,0.3619,0.3642,0,0,0,0,0,0,0.3005,0.3047,0.3034,0.3066,0.3123,0.3152,0.3174,0.3175,0.3207,0.3224,0.3227,0.3243,0.3361,0.3339,0.3295,0.3455,0.3358,0.3367,0.3499,0.3525,0.3546,0.3605,0.3248,0,0,0,0,0,0.2985,0.3003,0.3053,0.3091,0.3116,0.3133,0.3152,0.3182,0.3235,0.3249,0.3295,0.3333,0.3375,0.3427,0.3452,0.3535,0.3519,0.3598,0.3619,0.3638,0.3687,0.3701,0.3729,0.3435,0.3434,0.3434,0,0,0.2986,0.3024,0.3027,0.3086,0.3113,0.3197,0.3152,0.3229,0.3329,0.3259,0.341,0.3404,0.3409,0.3522,0.3573,0.3534,0.3721,0.3648,0.3664,0.3704,0.3713,0.3741,0.3767,0.344,0.3439,0.3438,0,0,0.3045,0.3039,0.3071,0.3119,0.32,0.3252,0.3293,0.3364,0.3419,0.3536,0.3522,0.3607,0.366,0.3721,0.3739,0.3889,0.3819,0.387,0.4049,0.4062,0.4087,0.4108,0.416,0.4184,0.3898,0.3898,0.3899,0,0.3042,0.3104,0.3103,0.3168,0.3247,0.33,0.34,0.3464,0.3578,0.3637,0.3635,0.3737,0.3774,0.3894,0.3981,0.3948,0.3928,0.3952,0.4091,0.4112,0.413,0.4178,0.4202,0.3909,0.3908,0.3907,0.3906,0,0.3113,0.3179,0.3231,0.3337,0.3413,0.3526,0.3639,0.373,0.3809,0.3873,0.4008,0.404,0.41,0.413,0.4124,0.4269,0.4206,0.41,0.4028,0.4172,0.4213,0.4235,0.3925,0.3921,0.3917,0.3915,0,0,0.3121,0.3246,0.3273,0.3374,0.3518,0.3628,0.3785,0.3957,0.403,0.417,0.4275,0.4423,0.4403,0.4426,0.4403,0.447,0.4629,0.4371,0.4367,0.4431,0.4675,0.4492,0.4497,0.4512,0.4516,0.4519,0.4665,0,0.3206,0.3346,0.3408,0.3648,0.3757,0.3854,0.3987,0.4133,0.4218,0.4331,0.4422,0.4513,0.4522,0.4531,0.4613,0.4595,0.4688,0.4602,0.4522,0.4523,0.4345,0.4516,0.4169,0.4254,0.4685,0.4688,0.4691,0,0.3294,0.3382,0.3556,0.3805,0.3859,0.4015,0.4212,0.4344,0.4468,0.4487,0.4581,0.4604,0.4795,0.4717,0.4863,0.4786,0.479,0.4782,0.4783,0.4559,0.4378,0.4172,0.4275,0.4725,0.4722,0.472,0.4717,0,0.3347,0.356,0.3717,0.3787,0.4001,0.4131,0.4296,0.4405,0.4481,0.4606,0.4642,0.4766,0.4844,0.4891,0.4953,0.4896,0.5045,0.4933,0.4792,0.4779,0.4449,0.4399,0.5041,0.5041,0.504,0.504,0.504,0,0.3452,0.3629,0.3761,0.3859,0.4046,0.4208,0.4375,0.4473,0.4564,0.4643,0.4762,0.4793,0.4884,0.4971,0.4995,0.4986,0.5086,0.4888,0.4816,0.4512,0.4468,0.4822,0.4795,0.5045,0.5044,0.5043,0.5042,0,0.3532,0.3604,0.3815,0.4016,0.4081,0.4238,0.4441,0.448,0.4621,0.4709,0.4778,0.4872,0.4948,0.5033,0.5075,0.5023,0.5029,0.4989,0.4658,0.4543,0.4754,0.4736,0.4864,0.4859,0.4855,0.4851,0.4848,0,0.362,0.3696,0.3874,0.3904,0.4023,0.4213,0.4252,0.445,0.4472,0.4724,0.4744,0.4897,0.4862,0.4915,0.4825,0.4822,0.4946,0.4506,0.4344,0.4826,0.4743,0.4731,0.4719,0.402,0.4011,0.4003,0.3997,0,0.3711,0.3733,0.3793,0.383,0.3921,0.4022,0.4168,0.4185,0.4387,0.4431,0.4502,0.4545,0.4635,0.4392,0.4405,0.4356,0.4473,0.4341,0.4938,0.409,0.4032,0.395,0.3966,0.3928,0.3935,0.394,0.3943,0.3946,0.3699,0.3687,0.3648,0.3717,0.3788,0.3811,0.3844,0.3893,0.3893,0.3961,0.412,0.4068,0.413,0.388,0.3794,0.3758,0.4027,0.3887,0.3911,0.3943,0.379,0.3724,0.3539,0.3543,0.3547,0.3551,0.3554,0,0.3529,0.3487,0.3523,0.3525,0.3532,0.3674,0.3714,0.3641,0.3538,0.3575,0.3569,0.3246,0.312,0.3248,0.3069,0.3068,0.3041,0.2976,0.2931,0.3002,0.3065,0.2866,0.2371,0.2367,0.2363,0.236,0,0,0.3386,0.3267,0.3278,0.3224,0.3296,0.3256,0.3266,0.3134,0.3103,0.2854,0.2766,0.2968,0.3124,0.2681,0.265,0.2493,0.2723,0.2399,0.3353,0.337,0.3428,0.3601,0.3376,0,0,0,0,0]},{"header":{"parameterUnit":"m.s-1","parameterCategory":2,"la1":30.2991,"la2":30.254,"lo1":-89.0895,"lo2":-89.0444,"dy":0.0017,"dx":0.0017,"nx":28,"ny":28,"refTime":"2025-07-07T03:00:00:Z","depth":"2","parameterNumber":3,"parameterNumberName":"V-component_of_CURRENTS"},"data":[0,0,0,0,0,0,0,0,0,0,0,0,0,0,0,0,0,0,0,0,0,0,0,0,0,0,0,0,0,0,0,0,0,0,0,0,0,0,0,0,0,0,0,0,0,0,0,0,0,0,0,0,0,0,0,0,0,0,-0.0051,-0.0051,0,-0.0098,-0.0099,-0.0099,-0.0143,-0.0144,-0.0145,-0.0145,-0.0271,-0.0273,-0.0276,0,0,0,0,0,0,0,0,0,0,0,0,0,-0.0035,-0.0035,-0.0051,-0.0051,-0.0052,-0.0098,-0.0099,-0.0099,-0.0143,-0.0144,-0.0145,-0.0145,-0.027,-0.0273,-0.0276,0,0,0,0,0,0,0,0,0,0,0,0,0,-0.0058,-0.0035,-0.005,-0.008,-0.0083,-0.0098,-0.0099,-0.0099,-0.0143,-0.0144,-0.0145,-0.0146,-0.0269,-0.0273,-0.0277,-0.0285,0,0,-0.029,-0.0292,0,0,0,0,0,0,0,0,-0.0056,-0.0058,-0.0075,-0.0078,-0.0081,-0.0116,-0.0139,-0.0166,-0.0143,-0.012,-0.0145,-0.0146,-0.0226,-0.0234,-0.0239,-0.0291,-0.0296,-0.029,-0.0293,-0.0294,-0.0296,0,0,0,0,0,0,0,-0.0055,-0.0057,-0.0069,-0.0075,-0.0079,-0.0103,-0.0107,-0.0144,-0.0168,-0.0122,-0.0125,-0.0131,-0.0228,-0.0235,-0.0242,-0.0298,-0.029,-0.0294,-0.0296,-0.0298,-0.0431,-0.0432,0,0,0,0,0,0,-0.0047,-0.0055,-0.0067,-0.007,-0.0071,-0.0103,-0.0107,-0.0104,-0.0166,-0.0176,-0.013,-0.0133,-0.0227,-0.0237,-0.0247,-0.0269,-0.0294,-0.0298,-0.0301,-0.043,-0.0431,-0.0432,0,0,0,0,0,0,-0.0046,-0.0047,-0.0066,-0.0065,-0.0069,-0.0102,-0.0098,-0.0104,-0.0115,-0.0172,-0.0184,-0.0136,-0.0228,-0.0241,-0.0277,-0.0274,-0.03,-0.0304,-0.0429,-0.043,-0.0432,-0.0308,0,0,0,0,0,0,-0.0045,-0.0046,-0.0039,-0.0064,-0.0069,-0.0075,-0.0097,-0.0104,-0.0118,-0.0122,-0.0181,-0.0193,-0.023,-0.027,-0.0281,-0.0281,-0.0307,-0.0427,-0.0429,-0.0431,-0.0311,-0.0306,-0.0301,0,0,0,0,0,-0.0044,-0.0022,-0.0038,-0.004,-0.0058,-0.0075,-0.008,-0.0106,-0.0117,-0.012,-0.0155,-0.0191,-0.0292,-0.0273,-0.0286,-0.0287,-0.0426,-0.0429,-0.0431,-0.0314,-0.0307,-0.0301,0,0,0,0,0,0,-0.0008,-0.0025,-0.0044,-0.0027,-0.0054,-0.0083,-0.0076,-0.0102,-0.013,-0.013,-0.0187,-0.0201,-0.0232,-0.0286,-0.0265,-0.0339,-0.0373,-0.0377,-0.0279,-0.0273,-0.0268,-0.0215,-0.0311,0,0,0,0,0,0.0002,0.0008,-0.0019,-0.0012,-0.0012,-0.0046,-0.0054,-0.0077,-0.0105,-0.0117,-0.0168,-0.0221,-0.0251,-0.0281,-0.0322,-0.0356,-0.0375,-0.0376,-0.037,-0.0365,-0.0336,-0.0335,-0.0325,-0.044,-0.044,-0.044,0,0,0.0011,0.0007,0.0006,-0.0005,-0.0017,-0.0024,-0.0052,-0.0058,-0.0074,-0.0127,-0.0162,-0.0196,-0.0254,-0.0283,-0.0306,-0.0328,-0.0354,-0.0368,-0.0362,-0.0335,-0.0336,-0.0324,-0.0314,-0.0441,-0.0441,-0.0441,0,0,0.0052,0.004,0.0066,0.0051,0.0035,0.0001,-0.0,-0.0037,-0.0056,-0.0104,-0.0126,-0.0143,-0.0246,-0.0247,-0.0269,-0.0264,-0.0315,-0.0313,-0.0247,-0.0247,-0.0235,-0.0225,-0.0262,-0.0257,-0.032,-0.032,-0.032,0,0.0067,0.0093,0.0067,0.009,0.008,0.0015,0.003,-0.0003,-0.0059,-0.0044,-0.0115,-0.016,-0.0219,-0.0182,-0.0196,-0.0244,-0.0271,-0.0254,-0.0232,-0.0223,-0.0214,-0.0255,-0.025,-0.0315,-0.0315,-0.0316,-0.0316,0,0.0128,0.014,0.0159,0.0152,0.0133,0.0136,0.0084,0.0068,0.001,-0.0015,-0.0011,-0.0076,-0.0087,-0.0131,-0.0173,-0.0133,-0.0181,-0.0208,-0.0227,-0.0194,-0.0241,-0.0238,-0.0306,-0.0308,-0.031,-0.0312,0,0,0.0175,0.02,0.0204,0.0217,0.017,0.0166,0.0152,0.0147,0.0183,0.0093,0.014,0.0072,0.0068,0.0044,0.0006,-0.0017,-0.0011,-0.0095,-0.0097,-0.0095,-0.0038,-0.0111,-0.0116,-0.0031,-0.003,-0.0028,-0.0102,0,0.0228,0.0285,0.0278,0.0296,0.0306,0.0268,0.0271,0.0257,0.0218,0.0237,0.0203,0.0216,0.0123,0.0137,0.0106,0.0036,0.0006,0.001,-0.0102,-0.0106,-0.0143,-0.0111,-0.0091,-0.0158,-0.01,-0.0099,-0.0099,0,0.0295,0.0308,0.036,0.0386,0.0398,0.0403,0.0428,0.0435,0.0456,0.0438,0.0457,0.0416,0.0416,0.0305,0.022,0.0224,0.0107,0.0022,0.0017,-0.0081,-0.0171,-0.0182,-0.0155,-0.0094,-0.0095,-0.0095,-0.0095,0,0.0337,0.0376,0.0419,0.0419,0.0429,0.0475,0.0494,0.0516,0.056,0.0602,0.0645,0.0608,0.06,0.0481,0.0294,0.0261,0.0166,0.0101,-0.0072,-0.0081,-0.0099,-0.0111,0.0041,0.0041,0.0041,0.0041,0.0041,0,0.0402,0.0429,0.0452,0.0474,0.0536,0.0545,0.0646,0.0669,0.0734,0.0824,0.0789,0.0839,0.0639,0.0553,0.0367,0.0165,0.0229,-0.004,-0.0087,-0.0065,-0.0073,-0.0044,-0.0052,0.0038,0.0039,0.0039,0.004,0,0.0434,0.0466,0.0498,0.0535,0.0564,0.0612,0.0729,0.0802,0.0885,0.1003,0.1033,0.0999,0.0891,0.0684,0.046,0.0263,0.0078,-0.0015,0.0001,-0.0044,-0.0198,-0.02,-0.0213,-0.0215,-0.0218,-0.022,-0.0221,0,0.0472,0.049,0.0529,0.0569,0.0596,0.0684,0.0756,0.0847,0.093,0.111,0.1166,0.1122,0.109,0.0756,0.0398,0.0079,0.0049,-0.0136,-0.0197,-0.017,-0.0215,-0.0214,-0.0213,-0.019,-0.0192,-0.0193,-0.0193,0,0.0478,0.0485,0.0497,0.0589,0.0667,0.0766,0.0889,0.0977,0.1123,0.1266,0.1421,0.1437,0.1121,0.0788,0.0322,0.0101,-0.0084,-0.0173,-0.0101,-0.0137,-0.0156,-0.0199,-0.0197,-0.0203,-0.0202,-0.0201,-0.0201,-0.02,0.0456,0.046,0.0504,0.0601,0.0707,0.0864,0.0998,0.1154,0.1353,0.16,0.1549,0.1606,0.1205,0.0613,0.0232,-0.0175,-0.0172,-0.0323,-0.0316,-0.0308,-0.0299,-0.0323,-0.0401,-0.0401,-0.0401,-0.0401,-0.0401,0,0.0417,0.0454,0.0532,0.0669,0.0824,0.0887,0.11,0.1278,0.157,0.1683,0.182,0.1461,0.1089,0.0671,0.0052,-0.0334,-0.0342,-0.0444,-0.0361,-0.0351,-0.0342,-0.0331,-0.0443,-0.0444,-0.0445,-0.0446,0,0,0.0399,0.0453,0.0515,0.0761,0.0894,0.1124,0.1277,0.1557,0.1708,0.1867,0.1865,0.1759,0.1217,0.0762,0.025,-0.0086,-0.0128,-0.0158,-0.009,0.0077,0.0091,-0.0247,-0.0217,0,0,0,0,0]}],[{"header":{"parameterUnit":"m.s-1","parameterCategory":2,"la1":30.2991,"la2":30.254,"lo1":-89.0895,"lo2":-89.0444,"dy":0.0017,"dx":0.0017,"nx":28,"ny":28,"refTime":"2025-07-07T03:00:00:Z","depth":"4","parameterNumber":2,"parameterNumberName":"U-component_of_CURRENTS"},"data":[0,0,0,0,0,0,0,0,0,0,0,0,0,0,0,0,0,0,0,0,0,0,0,0,0,0,0,0,0,0,0,0,0,0,0,0,0,0,0,0,0,0,0,0,0,0,0,0,0,0,0,0,0,0,0,0,0,0,0.1512,0.1514,0,0.1557,0.1555,0.1554,0.1588,0.159,0.1592,0.1594,0.1589,0.1587,0.1584,0,0,0,0,0,0,0,0,0,0,0,0,0,0.1404,0.1404,0.1512,0.1515,0.1517,0.1557,0.1555,0.1554,0.1587,0.159,0.1593,0.1595,0.159,0.1587,0.1584,0,0,0,0,0,0,0,0,0,0,0,0,0,0.1429,0.1404,0.1512,0.1554,0.156,0.1557,0.1555,0.1553,0.1587,0.159,0.1593,0.1597,0.159,0.1587,0.1584,0.1495,0,0,0.1573,0.1572,0,0,0,0,0,0,0,0,0.1428,0.143,0.1546,0.1552,0.1558,0.1589,0.1517,0.1539,0.1586,0.1554,0.1594,0.1598,0.1596,0.1592,0.1563,0.1495,0.1494,0.1573,0.1571,0.157,0.1569,0,0,0,0,0,0,0,0.1426,0.1429,0.1508,0.1548,0.1556,0.1555,0.156,0.1519,0.1537,0.1557,0.1565,0.1603,0.1596,0.1566,0.1563,0.1494,0.1573,0.157,0.1568,0.1567,0.1471,0.1471,0,0,0,0,0,0,0.1462,0.1427,0.1507,0.1512,0.1524,0.1556,0.1561,0.1558,0.1539,0.1547,0.16,0.1605,0.157,0.1567,0.1564,0.1604,0.157,0.1567,0.1565,0.1472,0.1471,0.1471,0,0,0,0,0,0,0.1459,0.1467,0.1506,0.149,0.1498,0.1557,0.1552,0.1558,0.1589,0.1577,0.1579,0.1636,0.1573,0.1568,0.1559,0.16,0.1565,0.1562,0.1472,0.1472,0.1471,0.1592,0,0,0,0,0,0,0.1454,0.1464,0.1475,0.1491,0.1501,0.1528,0.1551,0.1557,0.1614,0.1621,0.1606,0.1606,0.1575,0.1564,0.1556,0.1594,0.1559,0.1473,0.1472,0.1471,0.1589,0.1595,0.1601,0,0,0,0,0,0.1449,0.1463,0.1473,0.1486,0.1511,0.1531,0.1532,0.1572,0.1613,0.1612,0.161,0.161,0.1553,0.1561,0.1551,0.159,0.1474,0.1472,0.1471,0.1586,0.1594,0.1601,0,0,0,0,0,0,0.1431,0.147,0.1482,0.1508,0.1531,0.1546,0.1574,0.1598,0.1591,0.1613,0.1595,0.1591,0.1613,0.156,0.157,0.1553,0.1515,0.1512,0.1606,0.1613,0.1619,0.1693,0.1556,0,0,0,0,0,0.143,0.1443,0.1479,0.1501,0.1523,0.155,0.1573,0.1595,0.1604,0.1608,0.1607,0.1592,0.1582,0.1571,0.1549,0.1519,0.1561,0.1535,0.1542,0.1548,0.1596,0.1747,0.1775,0.1467,0.1467,0.1467,0,0,0.1433,0.1461,0.147,0.1499,0.1522,0.1526,0.1567,0.1613,0.1604,0.1604,0.1602,0.1628,0.1584,0.1575,0.1577,0.1545,0.1633,0.1546,0.1553,0.1599,0.1749,0.1781,0.1809,0.1466,0.1466,0.1466,0,0,0.1447,0.1468,0.1483,0.1488,0.1544,0.1549,0.1579,0.1611,0.1618,0.1591,0.1634,0.1686,0.1606,0.1633,0.1618,0.1632,0.1682,0.1627,0.1705,0.1849,0.1879,0.1906,0.1917,0.1945,0.1609,0.1609,0.1609,0,0.1455,0.1462,0.1493,0.1499,0.1507,0.1566,0.1565,0.1561,0.1585,0.1636,0.1594,0.1674,0.1625,0.1715,0.1712,0.1657,0.1729,0.1688,0.187,0.1897,0.1923,0.1929,0.1958,0.1615,0.1614,0.1614,0.1613,0,0.1445,0.1466,0.1482,0.1489,0.1491,0.1509,0.1516,0.1563,0.1582,0.1614,0.1724,0.17,0.1783,0.1757,0.1717,0.19,0.1884,0.1889,0.1876,0.1964,0.1959,0.1988,0.1623,0.1621,0.1619,0.1618,0,0,0.1412,0.1468,0.1468,0.1476,0.1484,0.1487,0.1509,0.1573,0.1674,0.1688,0.1813,0.181,0.1937,0.1933,0.1966,0.2056,0.2224,0.2062,0.2067,0.2116,0.2508,0.2277,0.2284,0.2324,0.2332,0.2338,0.2404,0,0.1396,0.14,0.1427,0.1426,0.142,0.1482,0.1508,0.1579,0.1644,0.1779,0.1863,0.1968,0.1959,0.2046,0.2161,0.2217,0.2321,0.2201,0.2378,0.238,0.2206,0.2318,0.2361,0.2425,0.2432,0.2436,0.244,0,0.1337,0.1357,0.1352,0.1419,0.1432,0.1455,0.1576,0.1618,0.1828,0.1904,0.2109,0.2188,0.2346,0.231,0.2527,0.2481,0.2536,0.2553,0.2557,0.2342,0.2208,0.2333,0.2491,0.2487,0.2483,0.2479,0.2476,0,0.1244,0.1289,0.1291,0.1289,0.1381,0.1445,0.1522,0.1694,0.1779,0.2049,0.2142,0.2393,0.2476,0.2646,0.2656,0.2651,0.2855,0.2826,0.2676,0.2654,0.279,0.2762,0.305,0.305,0.305,0.305,0.305,0,0.1165,0.116,0.1273,0.1278,0.1331,0.1415,0.1554,0.1696,0.1925,0.2061,0.2251,0.2365,0.2589,0.2693,0.2748,0.2764,0.2939,0.273,0.2701,0.2814,0.2789,0.2804,0.2775,0.3052,0.3052,0.3051,0.3051,0,0.1011,0.1094,0.1112,0.1247,0.1292,0.1329,0.1526,0.1643,0.188,0.2062,0.2145,0.2379,0.2522,0.2658,0.2858,0.2804,0.2866,0.2846,0.2888,0.2852,0.254,0.2515,0.2694,0.2687,0.2681,0.2677,0.2673,0,0.0912,0.0906,0.1056,0.1085,0.1151,0.1252,0.1339,0.1598,0.1711,0.2025,0.2075,0.2296,0.2432,0.2509,0.2674,0.2779,0.2776,0.2753,0.2733,0.2573,0.2527,0.251,0.2494,0.2664,0.2663,0.2661,0.266,0,0.0725,0.0813,0.088,0.0942,0.1023,0.1102,0.125,0.1329,0.1637,0.1825,0.2007,0.213,0.2274,0.2415,0.251,0.2581,0.2733,0.2695,0.2708,0.2689,0.2539,0.2495,0.2485,0.264,0.2643,0.2645,0.2646,0,0.061,0.061,0.0751,0.0782,0.0865,0.0947,0.1054,0.1213,0.1382,0.1743,0.1781,0.2037,0.2251,0.2309,0.2386,0.2443,0.2436,0.2365,0.2394,0.2417,0.2299,0.2066,0.204,0,0,0,0,0,0.0495,0.0523,0.0557,0.0646,0.0718,0.0795,0.0984,0.1117,0.1389,0.1476,0.1662,0.1808,0.1984,0.2085,0.2103,0.2239,0.2413,0.224,0.2336,0.2534,0.2556,0.2444,0,0,0,0,0,0,0.0443,0.0499,0.0537,0.0531,0.055,0.0652,0.0787,0.0979,0.1059,0.1335,0.1444,0.1648,0.1837,0.1961,0.2048,0.2083,0.2097,0.2398,0.2392,0.2521,0.2541,0.2559,0.2451,0,0,0,0,0]},{"header":{"parameterUnit":"m.s-1","parameterCategory":2,"la1":30.2991,"la2":30.254,"lo1":-89.0895,"lo2":-89.0444,"dy":0.0017,"dx":0.0017,"nx":28,"ny":28,"refTime":"2025-07-07T03:00:00:Z","depth":"4","parameterNumber":3,"parameterNumberName":"V-component_of_CURRENTS"},"data":[0,0,0,0,0,0,0,0,0,0,0,0,0,0,0,0,0,0,0,0,0,0,0,0,0,0,0,0,0,0,0,0,0,0,0,0,0,0,0,0,0,0,0,0,0,0,0,0,0,0,0,0,0,0,0,0,0,0,0.0056,0.0056,0,0.0039,0.0039,0.0039,0.003,0.0029,0.0029,0.0029,0.0036,0.0037,0.0037,0,0,0,0,0,0,0,0,0,0,0,0,0,0.0031,0.0033,0.0056,0.0056,0.0055,0.0039,0.0039,0.0039,0.003,0.0029,0.0029,0.0028,0.0036,0.0037,0.0037,0,0,0,0,0,0,0,0,0,0,0,0,0,0.0035,0.0033,0.0057,0.0045,0.0044,0.0039,0.0039,0.0039,0.003,0.0029,0.0029,0.0028,0.0036,0.0037,0.0037,0.0055,0,0,0.004,0.0041,0,0,0,0,0,0,0,0,0.0035,0.0037,0.0048,0.0046,0.0044,0.0032,0.0032,0.0044,0.003,0.004,0.0029,0.0028,0.0035,0.0036,0.004,0.0056,0.0056,0.004,0.0041,0.0041,0.0041,0,0,0,0,0,0,0,0.0035,0.0037,0.0054,0.0047,0.0045,0.0023,0.0024,0.0035,0.0045,0.0039,0.0037,0.0028,0.0035,0.0039,0.004,0.0056,0.004,0.0041,0.0042,0.0042,0.0103,0.0104,0,0,0,0,0,0,0.0032,0.0037,0.0054,0.0053,0.0033,0.0024,0.0025,0.004,0.0044,0.0043,0.0029,0.0028,0.0038,0.0039,0.004,0.0062,0.0041,0.0042,0.0042,0.0102,0.0103,0.0104,0,0,0,0,0,0,0.0032,0.0035,0.0055,0.0039,0.004,0.0025,0.0042,0.004,0.0039,0.0035,0.0035,0.0028,0.0037,0.0039,0.0065,0.0062,0.0042,0.0043,0.01,0.0102,0.0104,0.0105,0,0,0,0,0,0,0.0032,0.0036,0.0048,0.004,0.0041,0.0065,0.0042,0.004,0.0032,0.0031,0.0035,0.0035,0.0037,0.0064,0.0066,0.0063,0.0044,0.0099,0.0101,0.0103,0.0104,0.0106,0.0109,0,0,0,0,0,0.0031,0.0055,0.0049,0.005,0.0058,0.0065,0.0065,0.0054,0.0033,0.0047,0.0051,0.0035,0.0078,0.0066,0.0068,0.0065,0.0098,0.01,0.0103,0.0102,0.0106,0.0109,0,0,0,0,0,0,0.0051,0.0056,0.0049,0.0073,0.0072,0.0062,0.0072,0.0053,0.0066,0.0065,0.0055,0.0058,0.0072,0.008,0.0067,0.0091,0.0082,0.0085,0.0081,0.0085,0.0087,0.006,0.0045,0,0,0,0,0,0.006,0.0079,0.0075,0.0093,0.0098,0.0082,0.0081,0.0072,0.0075,0.0079,0.0081,0.0086,0.0086,0.0095,0.0104,0.0126,0.0082,0.0125,0.0128,0.013,0.0111,0.0038,0.0031,0.0112,0.0112,0.0112,0,0,0.0066,0.0073,0.0081,0.0097,0.0098,0.0117,0.0083,0.0089,0.0097,0.0079,0.0105,0.0095,0.0094,0.0113,0.012,0.0119,0.009,0.0133,0.0134,0.0114,0.004,0.0031,0.0023,0.0114,0.0114,0.0113,0,0,0.0099,0.0105,0.0135,0.014,0.0143,0.014,0.014,0.0139,0.0136,0.0158,0.0133,0.0114,0.0153,0.0126,0.012,0.0144,0.0102,0.0162,0.0157,0.0087,0.0078,0.007,0.002,0.0007,0.0169,0.0169,0.0169,0,0.0108,0.0146,0.0143,0.0173,0.0179,0.0152,0.0182,0.0176,0.018,0.0168,0.0177,0.0148,0.0146,0.0112,0.0127,0.0141,0.011,0.0141,0.0085,0.0076,0.0067,0.0018,0.0004,0.017,0.017,0.017,0.0169,0,0.0166,0.0188,0.0208,0.024,0.025,0.0268,0.0261,0.0264,0.0253,0.0228,0.0197,0.0177,0.015,0.0148,0.0151,0.009,0.0091,0.0087,0.0065,0.0058,0.0009,-0.0006,0.017,0.017,0.017,0.017,0,0,0.0199,0.0243,0.0248,0.0271,0.0285,0.0303,0.0314,0.0306,0.0292,0.0268,0.0233,0.0203,0.0152,0.0141,0.0113,0.0055,-0.0024,0.0058,0.0054,-0.0011,-0.0163,-0.0133,-0.0146,-0.0035,-0.0038,-0.004,-0.0168,0,0.0244,0.032,0.0322,0.0374,0.041,0.0386,0.0399,0.0378,0.0352,0.0315,0.0225,0.0195,0.0161,0.0145,0.0071,-0.0001,-0.0064,0.0012,-0.0129,-0.0134,-0.0124,-0.0164,-0.0049,-0.018,-0.0183,-0.0186,-0.0188,0,0.0303,0.0342,0.0416,0.0444,0.0457,0.048,0.048,0.0484,0.0406,0.0378,0.0287,0.0219,0.0108,0.0097,-0.0083,-0.0027,-0.0095,-0.0156,-0.0162,-0.0153,-0.0132,-0.0173,-0.0216,-0.0213,-0.0211,-0.0209,-0.0208,0,0.0349,0.0403,0.0469,0.0481,0.0512,0.0529,0.054,0.0499,0.0504,0.0404,0.0381,0.0221,0.0161,0.0019,-0.0111,-0.0096,-0.0298,-0.0296,-0.0345,-0.0342,-0.0333,-0.0324,-0.0429,-0.0429,-0.0429,-0.0428,-0.0428,0,0.0402,0.0448,0.0496,0.0528,0.0594,0.0586,0.0627,0.0604,0.0559,0.0551,0.0412,0.0357,0.0142,0.0005,-0.0123,-0.0284,-0.0318,-0.037,-0.0386,-0.0322,-0.031,-0.0344,-0.0332,-0.0433,-0.0432,-0.0431,-0.043,0,0.0454,0.0485,0.0551,0.0594,0.0626,0.0668,0.0723,0.0733,0.0681,0.0661,0.0633,0.0452,0.0268,0.006,-0.0169,-0.0275,-0.044,-0.048,-0.0393,-0.0399,-0.0436,-0.0422,-0.0572,-0.0572,-0.0572,-0.0572,-0.0573,0,0.0496,0.0531,0.0617,0.066,0.0689,0.076,0.0811,0.0807,0.0809,0.0723,0.0702,0.0523,0.0389,0.0068,-0.0148,-0.0423,-0.0441,-0.0533,-0.0505,-0.0456,-0.0457,-0.0443,-0.0429,-0.0573,-0.0573,-0.0573,-0.0573,0,0.0544,0.0568,0.0629,0.0722,0.0791,0.088,0.0936,0.0947,0.092,0.0888,0.0761,0.0572,0.0362,0.0087,-0.0123,-0.0314,-0.0491,-0.0537,-0.0537,-0.0511,-0.0459,-0.0457,-0.0443,-0.0574,-0.0574,-0.0574,-0.0574,0,0.0577,0.0618,0.0686,0.0765,0.0855,0.093,0.0977,0.0975,0.0985,0.0878,0.0842,0.06,0.0455,0.0145,-0.0052,-0.0244,-0.0288,-0.0344,-0.0355,-0.0357,-0.0253,-0.0153,-0.0209,0,0,0,0,0,0.0594,0.0636,0.0714,0.079,0.0874,0.0941,0.1019,0.104,0.1024,0.0957,0.0899,0.0708,0.0385,0.0222,0.0037,-0.006,-0.0325,-0.0283,-0.0396,-0.0579,-0.0578,-0.049,0,0,0,0,0,0,0.0604,0.0682,0.0716,0.0793,0.0843,0.0952,0.1011,0.1019,0.0969,0.0919,0.0747,0.0665,0.0347,0.0492,0.0031,-0.0031,-0.0126,-0.0436,-0.0439,-0.0579,-0.0578,-0.0578,-0.0487,0,0,0,0,0]}]]